When you browse on this site, cookies collect data to enhance your experience and personalize the content and advertising you see.
Visit our Privacy Policy to learn more. By continuing to use the site, you agree to this use of cookies and data.
  • In Austria
  • List of Countries
  • For 7 days
  • Water Temperature
  • Satellite Maps
  • Weather Map
  • News
  • Weather Widgets
  • user-avatar
    Login

    Hourly Weather Megri

    Today, 27 June, Thursday

    Time Temperature Precipitation Wind Pressure Humidity
    00:00 +19°C° 0 mm 2 mps 624 mmHg 53%
    01:00 +19°C° 0 mm 2 mps 624 mmHg 54%
    02:00 +18°C° 0 mm 2 mps 624 mmHg 55%
    03:00 +18°C° 0 mm 2 mps 623 mmHg 57%
    04:00 +18°C° 0 mm 2 mps 624 mmHg 55%
    05:00 +19°C° 0 mm 2 mps 624 mmHg 53%
    06:00 +19°C° 0 mm 2 mps 624 mmHg 51%
    07:00 +21°C° 0 mm 2 mps 624 mmHg 46%
    08:00 +23°C° 0 mm 2 mps 625 mmHg 41%
    09:00 +25°C° 0 mm 2 mps 625 mmHg 37%
    10:00 +26°C° 0 mm 3 mps 625 mmHg 35%
    11:00 +27°C° 0 mm 3 mps 625 mmHg 34%
    12:00 +28°C° 0 mm 3 mps 625 mmHg 32%
    13:00 +28°C° 0 mm 3 mps 624 mmHg 32%
    14:00 +29°C° 0 mm 4 mps 624 mmHg 33%
    15:00 +29°C° 0 mm 4 mps 624 mmHg 33%
    16:00 +28°C° 0 mm 4 mps 623 mmHg 37%
    17:00 +27°C° 0 mm 5 mps 623 mmHg 41%
    18:00 +25°C° 0 mm 5 mps 622 mmHg 45%
    19:00 +23°C° 0.1 mm 4 mps 622 mmHg 48%
    20:00 +22°C° 0.1 mm 4 mps 622 mmHg 52%
    21:00 +20°C° 0.1 mm 3 mps 621 mmHg 55%
    22:00 +20°C° 0.1 mm 3 mps 621 mmHg 57%
    23:00 +19°C° 0.1 mm 3 mps 621 mmHg 60%

    Tomorrow, 28 June, Friday

    Time Temperature Precipitation Wind Pressure Humidity
    00:00 +18°C° 0.1 mm 3 mps 621 mmHg 62%
    01:00 +18°C° 0 mm 2 mps 620 mmHg 64%
    02:00 +18°C° 0 mm 2 mps 620 mmHg 65%
    03:00 +17°C° 0 mm 2 mps 619 mmHg 67%
    04:00 +18°C° 0 mm 2 mps 620 mmHg 65%
    05:00 +18°C° 0 mm 2 mps 620 mmHg 63%
    06:00 +19°C° 0 mm 2 mps 620 mmHg 61%
    07:00 +20°C° 0 mm 2 mps 620 mmHg 55%
    08:00 +23°C° 0 mm 2 mps 620 mmHg 50%
    09:00 +25°C° 0 mm 2 mps 621 mmHg 44%
    10:00 +26°C° 0 mm 2 mps 621 mmHg 41%
    11:00 +28°C° 0 mm 2 mps 621 mmHg 37%
    12:00 +29°C° 0 mm 2 mps 621 mmHg 34%
    13:00 +29°C° 0 mm 2 mps 620 mmHg 32%
    14:00 +30°C° 0 mm 3 mps 620 mmHg 30%
    15:00 +30°C° 0 mm 3 mps 620 mmHg 28%
    16:00 +29°C° 0 mm 3 mps 619 mmHg 32%
    17:00 +28°C° 0 mm 3 mps 619 mmHg 36%
    18:00 +27°C° 0 mm 4 mps 618 mmHg 41%
    19:00 +25°C° 0.1 mm 3 mps 618 mmHg 50%
    20:00 +22°C° 0.1 mm 3 mps 618 mmHg 59%
    21:00 +20°C° 0.1 mm 3 mps 618 mmHg 68%
    22:00 +19°C° 0.1 mm 3 mps 617 mmHg 69%
    23:00 +19°C° 0.1 mm 2 mps 617 mmHg 69%

    Day after tomorrow, 29 June, Saturday

    Time Temperature Precipitation Wind Pressure Humidity
    00:00 +19°C° 0.1 mm 2 mps 617 mmHg 70%
    01:00 +18°C° 0 mm 2 mps 617 mmHg 70%
    02:00 +19°C° 0 mm 1 mps 617 mmHg 70%
    03:00 +19°C° 0 mm 1 mps 617 mmHg 70%
    04:00 +19°C° 0 mm 1 mps 617 mmHg 68%
    05:00 +20°C° 0 mm 1 mps 617 mmHg 65%
    06:00 +21°C° 0 mm 1 mps 618 mmHg 62%
    07:00 +22°C° 0 mm 1 mps 618 mmHg 56%
    08:00 +24°C° 0 mm 1 mps 618 mmHg 49%
    09:00 +25°C° 0 mm 2 mps 619 mmHg 43%
    10:00 +27°C° 0 mm 3 mps 619 mmHg 38%
    11:00 +28°C° 0 mm 4 mps 619 mmHg 33%
    12:00 +30°C° 0 mm 5 mps 619 mmHg 28%
    13:00 +30°C° 0 mm 5 mps 619 mmHg 25%
    14:00 +32°C° 0 mm 5 mps 619 mmHg 22%
    15:00 +32°C° 0 mm 6 mps 619 mmHg 20%
    16:00 +30°C° 0 mm 6 mps 618 mmHg 22%
    17:00 +29°C° 0 mm 6 mps 618 mmHg 25%
    18:00 +28°C° 0 mm 6 mps 618 mmHg 27%
    19:00 +27°C° 0 mm 5 mps 618 mmHg 32%
    20:00 +25°C° 0 mm 4 mps 618 mmHg 36%
    21:00 +23°C° 0 mm 2 mps 618 mmHg 41%
    22:00 +21°C° 0 mm 2 mps 618 mmHg 46%
    23:00 +20°C° 0 mm 2 mps 618 mmHg 52%

    30 June, Sunday

    Time Temperature Precipitation Wind Pressure Humidity
    00:00 +20°C° 0 mm 1 mps 618 mmHg 57%
    01:00 +20°C° 0 mm 1 mps 617 mmHg 65%
    02:00 +18°C° 0 mm 2 mps 617 mmHg 73%
    03:00 +17°C° 0 mm 2 mps 617 mmHg 81%
    04:00 +17°C° 0 mm 2 mps 617 mmHg 81%
    05:00 +17°C° 0 mm 2 mps 617 mmHg 82%
    06:00 +17°C° 0 mm 2 mps 618 mmHg 82%
    07:00 +18°C° 0 mm 2 mps 618 mmHg 76%
    08:00 +19°C° 0 mm 2 mps 618 mmHg 69%
    09:00 +20°C° 0 mm 2 mps 619 mmHg 62%
    10:00 +23°C° 0 mm 2 mps 619 mmHg 54%
    11:00 +25°C° 0 mm 2 mps 620 mmHg 47%
    12:00 +26°C° 0 mm 3 mps 620 mmHg 40%
    13:00 +27°C° 0 mm 3 mps 620 mmHg 36%
    14:00 +28°C° 0 mm 4 mps 620 mmHg 32%
    15:00 +29°C° 0 mm 4 mps 619 mmHg 28%
    16:00 +27°C° 0 mm 4 mps 619 mmHg 32%
    17:00 +26°C° 0 mm 4 mps 619 mmHg 35%
    18:00 +25°C° 0 mm 4 mps 618 mmHg 38%
    19:00 +22°C° 0 mm 4 mps 618 mmHg 47%
    20:00 +20°C° 0 mm 4 mps 618 mmHg 56%
    21:00 +18°C° 0 mm 3 mps 617 mmHg 64%
    22:00 +17°C° 0 mm 3 mps 617 mmHg 70%
    23:00 +17°C° 0 mm 3 mps 617 mmHg 75%

    1 July, Monday

    Time Temperature Precipitation Wind Pressure Humidity
    00:00 +16°C° 0 mm 3 mps 617 mmHg 80%
    01:00 +16°C° 0 mm 3 mps 617 mmHg 83%
    02:00 +14°C° 0 mm 3 mps 617 mmHg 85%
    03:00 +14°C° 0 mm 3 mps 618 mmHg 88%
    04:00 +15°C° 0 mm 2 mps 618 mmHg 86%
    05:00 +15°C° 0 mm 2 mps 618 mmHg 85%
    06:00 +15°C° 0 mm 2 mps 618 mmHg 84%
    07:00 +16°C° 0 mm 2 mps 618 mmHg 78%
    08:00 +17°C° 0 mm 2 mps 619 mmHg 72%
    09:00 +18°C° 0 mm 2 mps 619 mmHg 66%
    10:00 +19°C° 0 mm 2 mps 619 mmHg 59%
    11:00 +20°C° 0 mm 3 mps 619 mmHg 52%
    12:00 +21°C° 0 mm 3 mps 620 mmHg 46%
    13:00 +21°C° 0 mm 3 mps 619 mmHg 48%
    14:00 +20°C° 0 mm 4 mps 619 mmHg 50%
    15:00 +20°C° 0 mm 4 mps 619 mmHg 52%
    16:00 +18°C° 0 mm 4 mps 618 mmHg 56%
    17:00 +17°C° 0 mm 4 mps 618 mmHg 61%
    18:00 +15°C° 0 mm 4 mps 618 mmHg 65%
    19:00 +13°C° 0 mm 4 mps 619 mmHg 67%
    20:00 +12°C° 0 mm 4 mps 619 mmHg 69%
    21:00 +11°C° 0 mm 3 mps 619 mmHg 71%
    22:00 +11°C° 0 mm 3 mps 620 mmHg 71%
    23:00 +12°C° 0 mm 2 mps 620 mmHg 72%

    2 July, Tuesday

    Time Temperature Precipitation Wind Pressure Humidity
    00:00 +10°C° 0 mm 2 mps 620 mmHg 72%
    01:00 +11°C° 0 mm 1 mps 620 mmHg 73%
    02:00 +11°C° 0 mm 1 mps 620 mmHg 73%
    03:00 +10°C° 0 mm 1 mps 621 mmHg 74%
    04:00 +11°C° 0 mm 1 mps 621 mmHg 71%
    05:00 +11°C° 0 mm 1 mps 622 mmHg 68%
    06:00 +12°C° 0 mm 1 mps 622 mmHg 65%
    07:00 +13°C° 0 mm 2 mps 623 mmHg 58%
    08:00 +15°C° 0 mm 2 mps 624 mmHg 51%
    09:00 +16°C° 0 mm 2 mps 624 mmHg 44%
    10:00 +17°C° 0 mm 2 mps 624 mmHg 40%
    11:00 +19°C° 0 mm 2 mps 624 mmHg 36%
    12:00 +20°C° 0 mm 2 mps 625 mmHg 32%
    13:00 +21°C° 0 mm 3 mps 624 mmHg 31%
    14:00 +21°C° 0 mm 3 mps 624 mmHg 30%
    15:00 +22°C° 0 mm 3 mps 624 mmHg 29%
    16:00 +21°C° 0 mm 3 mps 624 mmHg 32%
    17:00 +21°C° 0 mm 3 mps 624 mmHg 35%
    18:00 +20°C° 0 mm 3 mps 624 mmHg 38%
    19:00 +18°C° 0 mm 3 mps 624 mmHg 45%
    20:00 +17°C° 0 mm 2 mps 623 mmHg 52%
    21:00 +15°C° 0 mm 2 mps 623 mmHg 59%
    22:00 +14°C° 0 mm 2 mps 623 mmHg 61%
    23:00 +14°C° 0 mm 2 mps 622 mmHg 63%
    Show more